Location: Bogis-Bossey
(46.3500°N, 6.1667°E)
Time: 00:31:08
(UTC+00:00)

USA 238 DEB - Pass Details

Date: 02 March 2024
Orbit: 948 x 1263 km, 63.4° (Epoch: 09 April)

Event Time Altitude Azimuth Distance (km) Brightness Sun altitude
Exits shadow 02:06:53 29° 81° (E) 1,766 5.1 -40.6°
Drops below altitude 10° 02:10:50 10° 52° (NE) 2,862 6.6 -40.1°
Sets 02:13:46 0° 44° (NE) 3,870 7.5 -39.7°
